�������l�o���
Date,Time,MP-1(��Sv/h),MP-2(��Sv/h),MP-3(��Sv/h),MP-4(��Sv/h),MP-5(��Sv/h),MP-6(��Sv/h),MP-7(��Sv/h),MP-8(��Sv/h),����,����(m/s),���J
2021/09/05,00:00,0.571,0.838,0.534,1.027,0.705,0.350,0.604,0.570,�k�k��,7.6,�L
2021/09/05,00:10,0.568,0.837,0.533,1.027,0.704,0.352,0.604,0.570,�k�k��,7.1,�L
2021/09/05,00:20,0.567,0.837,0.534,1.027,0.704,0.352,0.604,0.569,�k�k��,7.4,�L
2021/09/05,00:30,0.569,0.837,0.533,1.027,0.704,0.352,0.604,0.569,�k�k��,7.0,�L
2021/09/05,00:40,0.567,0.836,0.533,1.027,0.705,0.349,0.604,0.570,�k�k��,6.8,�L
2021/09/05,00:50,0.568,0.836,0.532,1.027,0.704,0.350,0.605,0.569,�k�k��,6.6,�L
2021/09/05,01:00,0.567,0.833,0.535,1.027,0.704,0.351,0.605,0.569,�k�k��,7.7,�L
2021/09/05,01:10,0.567,0.836,0.533,1.027,0.704,0.351,0.605,0.569,�k�k��,7.4,�L
2021/09/05,01:20,0.567,0.836,0.533,1.027,0.705,0.350,0.605,0.569,�k�k��,7.4,�L
2021/09/05,01:30,0.568,0.836,0.534,1.027,0.704,0.352,0.605,0.569,�k�k��,7.1,�L
2021/09/05,01:40,0.571,0.837,0.535,1.029,0.705,0.350,0.604,0.570,�k�k��,7.8,�L
2021/09/05,01:50,0.570,0.839,0.535,1.028,0.707,0.351,0.604,0.571,�k�k��,6.7,�L
2021/09/05,02:00,0.568,0.839,0.535,1.027,0.705,0.353,0.603,0.570,�k�k��,8.3,�L
2021/09/05,02:10,0.567,0.840,0.536,1.027,0.706,0.351,0.605,0.570,�k�k��,7.4,�L
2021/09/05,02:20,0.568,0.839,0.535,1.026,0.707,0.353,0.604,0.570,�k�k��,6.5,�L
2021/09/05,02:30,0.568,0.839,0.536,1.027,0.707,0.352,0.605,0.570,�k�k��,6.4,�L
2021/09/05,02:40,0.569,0.840,0.534,1.027,0.706,0.352,0.605,0.570,�k�k��,7.7,�L
2021/09/05,02:50,0.567,0.837,0.533,1.028,0.706,0.350,0.606,0.570,�k�k��,8.2,�L
2021/09/05,03:00,0.565,0.836,0.533,1.028,0.706,0.352,0.604,0.569,�k�k��,7.7,�L
2021/09/05,03:10,0.569,0.838,0.535,1.028,0.704,0.352,0.605,0.570,�k�k��,8.6,�L
2021/09/05,03:20,0.570,0.840,0.537,1.029,0.707,0.351,0.606,0.570,�k�k��,7.8,��
2021/09/05,03:30,0.568,0.839,0.536,1.029,0.706,0.351,0.604,0.570,�k�k��,8.3,��
2021/09/05,03:40,0.570,0.841,0.536,1.029,0.707,0.350,0.604,0.570,�k�k��,7.6,�L
2021/09/05,03:50,0.572,0.840,0.535,1.031,0.707,0.351,0.605,0.571,�k�k��,7.0,�L
2021/09/05,04:00,0.570,0.842,0.535,1.027,0.710,0.351,0.605,0.571,�k�k��,7.4,�L
2021/09/05,04:10,0.569,0.841,0.535,1.029,0.706,0.351,0.605,0.570,�k�k��,7.1,�L
2021/09/05,04:20,0.570,0.841,0.537,1.029,0.708,0.352,0.606,0.571,�k�k��,8.4,�L
2021/09/05,04:30,0.570,0.842,0.536,1.030,0.709,0.351,0.607,0.571,�k�k��,7.8,�L
2021/09/05,04:40,0.569,0.841,0.535,1.029,0.709,0.351,0.605,0.571,�k�k��,7.5,�L
2021/09/05,04:50,0.570,0.842,0.534,1.031,0.711,0.351,0.607,0.571,�k�k��,7.3,�L
2021/09/05,05:00,0.571,0.843,0.536,1.029,0.710,0.351,0.607,0.571,�k�k��,6.7,�L
2021/09/05,05:10,0.570,0.844,0.534,1.030,0.710,0.353,0.607,0.571,�k�k��,7.0,�L
2021/09/05,05:20,0.570,0.842,0.536,1.031,0.711,0.352,0.607,0.570,�k�k��,6.9,�L
2021/09/05,05:30,0.570,0.843,0.536,1.032,0.711,0.352,0.604,0.571,�k�k��,6.8,��
2021/09/05,05:40,0.571,0.841,0.536,1.032,0.710,0.353,0.605,0.571,�k�k��,8.0,�L
2021/09/05,05:50,0.571,0.841,0.538,1.033,0.710,0.352,0.605,0.571,�k�k��,7.3,�L
2021/09/05,06:00,0.571,0.845,0.536,1.033,0.712,0.352,0.607,0.571,�k�k��,7.5,��
2021/09/05,06:10,0.571,0.843,0.537,1.032,0.712,0.352,0.607,0.570,�k�k��,8.1,��
2021/09/05,06:20,0.572,0.843,0.536,1.031,0.714,0.351,0.605,0.570,�k�k��,7.0,�L
2021/09/05,06:30,0.571,0.842,0.537,1.033,0.711,0.352,0.606,0.571,�k,6.4,��
2021/09/05,06:40,0.572,0.843,0.539,1.034,0.713,0.352,0.609,0.570,�k�k��,7.2,��
2021/09/05,06:50,0.572,0.843,0.537,1.033,0.711,0.352,0.606,0.573,�k�k��,7.2,�L
2021/09/05,07:00,0.570,0.845,0.536,1.034,0.713,0.352,0.606,0.571,�k�k��,7.5,��
2021/09/05,07:10,0.571,0.845,0.538,1.033,0.711,0.353,0.607,0.572,�k�k��,7.6,�L
2021/09/05,07:20,0.570,0.843,0.536,1.032,0.711,0.353,0.608,0.571,�k,6.7,�L
2021/09/05,07:30,0.570,0.844,0.539,1.034,0.711,0.354,0.608,0.570,�k�k��,5.5,�L
2021/09/05,07:40,0.571,0.844,0.537,1.034,0.711,0.351,0.608,0.572,�k�k��,5.3,�L
2021/09/05,07:50,0.570,0.843,0.536,1.033,0.714,0.352,0.607,0.571,�k�k��,6.4,��
2021/09/05,08:00,0.573,0.844,0.538,1.033,0.712,0.353,0.608,0.571,�k�k��,5.9,��
2021/09/05,08:10,0.572,0.846,0.538,1.034,0.713,0.351,0.607,0.574,�k�k��,5.3,��
2021/09/05,08:20,0.571,0.846,0.538,1.036,0.713,0.352,0.608,0.572,�k�k��,5.9,��
2021/09/05,08:30,0.571,0.847,0.538,1.036,0.714,0.353,0.608,0.571,�k�k��,5.7,��
2021/09/05,08:40,0.571,0.847,0.538,1.036,0.714,0.353,0.607,0.573,�k�k��,6.0,��
2021/09/05,08:50,0.572,0.846,0.537,1.033,0.715,0.352,0.609,0.573,�k�k��,5.6,��
2021/09/05,09:00,0.570,0.845,0.538,1.035,0.714,0.352,0.608,0.575,�k�k��,6.1,��
2021/09/05,09:10,0.573,0.846,0.537,1.035,0.714,0.351,0.608,0.571,�k�k��,6.6,��
2021/09/05,09:20,0.571,0.846,0.537,1.037,0.712,0.352,0.608,0.573,�k�k��,5.7,��
2021/09/05,09:30,0.573,0.846,0.538,1.036,0.713,0.351,0.609,0.573,�k�k��,5.8,��
2021/09/05,09:40,0.571,0.846,0.538,1.036,0.714,0.352,0.610,0.573,�k�k��,5.6,��
2021/09/05,09:50,0.572,0.847,0.537,1.037,0.714,0.353,0.610,0.571,�k�k��,6.6,�L
2021/09/05,10:00,0.573,0.847,0.538,1.038,0.715,0.352,0.610,0.573,�k�k��,6.7,��
2021/09/05,10:10,0.574,0.847,0.536,1.038,0.717,0.353,0.609,0.573,�k�k��,6.9,��
2021/09/05,10:20,0.573,0.848,0.537,1.038,0.716,0.353,0.611,0.573,�k�k��,6.5,��
2021/09/05,10:30,0.575,0.848,0.539,1.038,0.716,0.353,0.610,0.574,�k,6.6,��
2021/09/05,10:40,0.573,0.848,0.539,1.036,0.716,0.355,0.611,0.573,�k,5.9,��
2021/09/05,10:50,0.576,0.849,0.539,1.038,0.717,0.354,0.613,0.573,�k�k��,5.9,��
2021/09/05,11:00,0.575,0.852,0.539,1.037,0.717,0.353,0.610,0.573,�k,6.0,��
2021/09/05,11:10,0.575,0.851,0.541,1.038,0.720,0.354,0.612,0.574,�k,6.4,��
2021/09/05,11:20,0.577,0.851,0.540,1.038,0.718,0.353,0.613,0.574,�k,6.2,��
2021/09/05,11:30,0.576,0.851,0.541,1.037,0.720,0.352,0.611,0.574,�k,6.9,��
2021/09/05,11:40,0.577,0.851,0.540,1.039,0.720,0.352,0.611,0.575,�k,8.4,��
2021/09/05,11:50,0.578,0.853,0.541,1.039,0.720,0.354,0.612,0.574,�k,7.6,��
2021/09/05,12:00,0.576,0.852,0.541,1.038,0.721,0.355,0.610,0.575,�k�k��,7.9,�L
2021/09/05,12:10,0.577,0.852,0.540,1.036,0.721,0.356,0.613,0.575,�k,6.8,��
2021/09/05,12:20,0.578,0.853,0.540,1.039,0.721,0.355,0.610,0.575,�k,8.5,�L
2021/09/05,12:30,0.576,0.854,0.539,1.037,0.720,0.355,0.612,0.574,�k,8.3,�L
2021/09/05,12:40,0.576,0.854,0.541,1.040,0.723,0.354,0.612,0.574,�k�k��,8.0,��
2021/09/05,12:50,0.576,0.852,0.541,1.038,0.723,0.354,0.611,0.574,�k�k��,9.7,�L
2021/09/05,13:00,0.575,0.849,0.539,1.039,0.719,0.354,0.612,0.573,�k�k��,9.5,�L
2021/09/05,13:10,0.574,0.844,0.540,1.041,0.719,0.354,0.610,0.572,�k,9.0,�L
2021/09/05,13:20,0.573,0.842,0.539,1.035,0.717,0.354,0.611,0.572,�k,7.0,�L
2021/09/05,13:30,0.573,0.843,0.539,1.035,0.716,0.355,0.609,0.573,�k�k��,7.7,�L
2021/09/05,13:40,0.574,0.842,0.538,1.033,0.715,0.356,0.609,0.573,�k�k��,9.4,�L
2021/09/05,13:50,0.573,0.843,0.538,1.033,0.717,0.354,0.610,0.573,�k�k��,9.1,��
2021/09/05,14:00,0.574,0.844,0.538,1.035,0.718,0.354,0.611,0.574,�k�k��,9.9,�L
2021/09/05,14:10,0.572,0.844,0.538,1.037,0.715,0.354,0.611,0.573,�k�k��,10.2,��
2021/09/05,14:20,0.574,0.844,0.537,1.036,0.716,0.354,0.611,0.572,�k�k��,10.3,��
2021/09/05,14:30,0.575,0.844,0.538,1.036,0.716,0.353,0.612,0.571,�k�k��,9.2,��
2021/09/05,14:40,0.575,0.846,0.538,1.038,0.720,0.354,0.612,0.572,�k�k��,9.7,��
2021/09/05,14:50,0.575,0.845,0.539,1.037,0.716,0.353,0.613,0.572,�k�k��,9.7,��
2021/09/05,15:00,0.574,0.847,0.538,1.039,0.720,0.354,0.611,0.573,�k��,9.6,��
2021/09/05,15:10,0.575,0.846,0.539,1.039,0.718,0.353,0.613,0.571,�k�k��,8.6,��
2021/09/05,15:20,0.577,0.846,0.538,1.036,0.719,0.353,0.612,0.573,�k��,7.4,�L
2021/09/05,15:30,0.575,0.846,0.539,1.039,0.718,0.354,0.611,0.573,�k��,7.8,�L
2021/09/05,15:40,0.576,0.843,0.538,1.036,0.718,0.354,0.610,0.573,�k��,10.3,�L
2021/09/05,15:50,0.576,0.845,0.537,1.035,0.716,0.353,0.610,0.573,�k��,9.9,�L
2021/09/05,16:00,0.575,0.844,0.537,1.038,0.717,0.354,0.611,0.572,�k��,8.7,��
2021/09/05,16:10,0.575,0.843,0.537,1.038,0.718,0.354,0.610,0.573,�k��,9.4,��
2021/09/05,16:20,0.576,0.844,0.538,1.040,0.718,0.353,0.611,0.572,�k�k��,8.6,��
2021/09/05,16:30,0.576,0.843,0.537,1.040,0.718,0.353,0.612,0.573,�k�k��,8.3,��
2021/09/05,16:40,0.574,0.846,0.537,1.039,0.718,0.352,0.613,0.574,�k��,8.5,��
2021/09/05,16:50,0.575,0.846,0.538,1.040,0.717,0.353,0.611,0.573,�k��,7.8,��
2021/09/05,17:00,0.576,0.844,0.537,1.039,0.719,0.352,0.610,0.574,�k�k��,8.1,��
2021/09/05,17:10,0.575,0.844,0.537,1.039,0.720,0.353,0.610,0.575,�k�k��,7.7,��
2021/09/05,17:20,0.575,0.846,0.537,1.040,0.719,0.352,0.612,0.574,�k��,7.8,�L
2021/09/05,17:30,0.574,0.847,0.538,1.039,0.719,0.353,0.612,0.574,�k�k��,10.9,�L
2021/09/05,17:40,0.575,0.846,0.538,1.039,0.721,0.354,0.609,0.573,�k�k��,8.4,�L
2021/09/05,17:50,0.575,0.847,0.539,1.039,0.719,0.352,0.612,0.572,�k��,8.1,�L
2021/09/05,18:00,0.576,0.847,0.539,1.041,0.717,0.354,0.610,0.571,�k��,10.0,��
2021/09/05,18:10,0.575,0.846,0.539,1.039,0.720,0.353,0.612,0.572,�k�k��,7.6,��
2021/09/05,18:20,0.575,0.849,0.542,1.040,0.721,0.352,0.612,0.571,�k��,8.8,��
2021/09/05,18:30,0.577,0.848,0.541,1.042,0.721,0.352,0.610,0.572,�k��,8.1,��
2021/09/05,18:40,0.576,0.847,0.542,1.041,0.721,0.353,0.611,0.573,�k�k��,8.1,��
2021/09/05,18:50,0.577,0.846,0.543,1.040,0.721,0.353,0.611,0.574,�k�k��,7.1,��
2021/09/05,19:00,0.576,0.849,0.541,1.042,0.722,0.353,0.611,0.573,�k�k��,8.1,��
2021/09/05,19:10,0.574,0.846,0.541,1.042,0.722,0.354,0.612,0.573,�k�k��,8.9,��
2021/09/05,19:20,0.578,0.850,0.542,1.041,0.721,0.355,0.609,0.574,�k�k��,9.7,��
2021/09/05,19:30,0.576,0.848,0.540,1.041,0.722,0.355,0.612,0.572,�k�k��,10.0,��
2021/09/05,19:40,0.576,0.848,0.543,1.040,0.721,0.353,0.612,0.573,�k�k��,9.1,��
2021/09/05,19:50,0.577,0.848,0.542,1.041,0.721,0.353,0.611,0.573,�k�k��,8.9,��
2021/09/05,20:00,0.576,0.850,0.541,1.042,0.722,0.354,0.611,0.573,�k�k��,9.0,��
2021/09/05,20:10,0.577,0.850,0.541,1.044,0.722,0.353,0.613,0.573,�k�k��,8.9,��
2021/09/05,20:20,0.577,0.849,0.542,1.042,0.723,0.353,0.612,0.575,�k��,8.9,��
2021/09/05,20:30,0.575,0.851,0.542,1.043,0.721,0.353,0.612,0.573,�k�k��,9.0,��
2021/09/05,20:40,0.576,0.850,0.541,1.042,0.721,0.354,0.613,0.575,�k�k��,8.2,��
2021/09/05,20:50,0.577,0.851,0.542,1.041,0.723,0.353,0.613,0.576,�k,8.5,��
2021/09/05,21:00,0.577,0.852,0.542,1.045,0.723,0.354,0.612,0.576,�k�k��,7.7,��
2021/09/05,21:10,0.577,0.851,0.541,1.043,0.721,0.353,0.611,0.574,�k�k��,8.0,��
2021/09/05,21:20,0.577,0.851,0.543,1.042,0.723,0.353,0.614,0.574,�k,6.3,��
2021/09/05,21:30,0.578,0.851,0.540,1.043,0.724,0.353,0.612,0.574,�k,7.8,��
2021/09/05,21:40,0.578,0.849,0.542,1.042,0.725,0.353,0.612,0.572,�k,6.7,��
2021/09/05,21:50,0.575,0.852,0.543,1.044,0.723,0.353,0.613,0.575,�k,6.6,��
2021/09/05,22:00,0.579,0.851,0.543,1.044,0.725,0.355,0.612,0.575,�k,5.1,�L
2021/09/05,22:10,0.578,0.849,0.542,1.043,0.724,0.355,0.612,0.574,�k�k��,3.6,�L
2021/09/05,22:20,0.575,0.850,0.542,1.042,0.723,0.355,0.611,0.574,�k�k��,3.2,�L
2021/09/05,22:30,0.576,0.850,0.542,1.043,0.723,0.353,0.610,0.573,�k�k��,4.9,�L
2021/09/05,22:40,0.577,0.852,0.541,1.043,0.722,0.354,0.611,0.573,�k�k��,5.8,�L
2021/09/05,22:50,0.578,0.849,0.541,1.043,0.722,0.354,0.609,0.572,�k�k��,4.8,��
2021/09/05,23:00,0.578,0.849,0.541,1.045,0.724,0.354,0.610,0.573,�k�k��,5.0,��
2021/09/05,23:10,0.578,0.851,0.542,1.045,0.722,0.353,0.610,0.574,�k,4.5,��
2021/09/05,23:20,0.579,0.852,0.540,1.043,0.722,0.354,0.613,0.574,�k�k��,7.0,��
2021/09/05,23:30,0.577,0.852,0.542,1.044,0.724,0.354,0.610,0.573,�k�k��,7.7,��
2021/09/05,23:40,0.577,0.851,0.542,1.042,0.722,0.355,0.612,0.573,�k�k��,8.4,��
2021/09/05,23:50,0.577,0.854,0.541,1.042,0.722,0.354,0.611,0.573,�k�k��,7.1,��
